Saltar para o conteúdo principal

Graciosa (Aeródromo)

ID 1200507 · 39.0904, -28.0285 mapa

Última leitura · 2026-05-09 18:00 (Europe/Lisbon)

Temperatura
16.5 °C
Humidade
65 %
Pressão
1,019.5 hPa
Precipitação
0.0 mm
Radiação
2,454 W/m²
Velocidade do vento
31.0 km/h
Direcção do vento
N · Norte

Histórico de 24 horas

Hora (Europe/Lisbon) Temperatura Humidade Pressão Chuva Vento Direcção
2026-05-09 18:00 16.5 °C 65 % 1,019.5 0.0 mm 31.0 km/h N
2026-05-09 17:00 16.8 °C 64 % 1,019.3 0.0 mm 31.7 km/h N
2026-05-09 16:00 16.3 °C 69 % 1,019.0 0.0 mm 34.6 km/h N
2026-05-09 15:00 15.6 °C 72 % 1,019.1 0.0 mm 31.0 km/h N
2026-05-09 14:00 14.9 °C 71 % 1,019.5 0.0 mm 32.0 km/h N
2026-05-09 13:00 15.0 °C 64 % 1,019.6 0.0 mm 34.2 km/h N
2026-05-09 12:00 14.2 °C 64 % 1,019.6 0.0 mm 37.1 km/h N
2026-05-09 11:00 14.0 °C 60 % 1,019.6 0.0 mm 36.0 km/h N
2026-05-09 10:00 13.3 °C 58 % 1,019.4 0.0 mm 32.0 km/h N
2026-05-09 09:00 13.0 °C 60 % 1,019.0 0.0 mm 35.6 km/h
2026-05-09 08:00 12.6 °C 65 % 1,018.7 0.0 mm 33.5 km/h
2026-05-09 07:00 12.8 °C 66 % 1,018.7 0.0 mm 30.6 km/h N
2026-05-09 06:00 12.5 °C 70 % 1,019.0 0.0 mm 32.8 km/h N
2026-05-09 05:00 12.5 °C 72 % 1,019.1 1.0 mm 31.3 km/h N
2026-05-09 04:00 13.4 °C 63 % 1,019.2 0.0 mm 28.4 km/h N
2026-05-09 03:00 13.5 °C 63 % 1,019.4 0.0 mm 32.4 km/h N
2026-05-09 02:00 13.5 °C 58 % 1,019.8 0.0 mm 25.6 km/h N
2026-05-09 01:00 13.9 °C 65 % 1,019.9 0.0 mm 34.2 km/h N
2026-05-09 00:00 14.0 °C 67 % 1,019.7 0.0 mm 29.9 km/h N
2026-05-08 23:00 13.7 °C 76 % 1,019.0 0.1 mm 29.2 km/h N
2026-05-08 22:00 14.4 °C 73 % 1,018.3 0.0 mm 32.8 km/h N
2026-05-08 21:00 15.3 °C 70 % 1,017.8 0.0 mm 32.8 km/h N
2026-05-08 20:00 16.2 °C 68 % 1,017.5 0.0 mm 29.2 km/h N
2026-05-08 19:00 16.4 °C 70 % 1,017.3 0.0 mm 28.8 km/h N